Weather in Srednyaya Akhtuba

Russia / Volgograd Oblast     48°42′48″N   44°51′36″E
temp.,
°C
wind,
m/s
gust,
m/s
humid.,
%
clouds,
%
prec.,
mm/h
press.,
hPa
HPBL,
m
18 september, sat
sat1800:00+14ssw364014 0.0 1017171
03:00+14sw364082 0.0 1017178
06:00+15wsw3537100 0.0 1017197
09:00+18n233273 0.0 1018753
12:00+19nne433070 0.0 10181041
15:00+21ne432698 0.0 10181481
18:00+16ne6837100 0.0 1018405
21:00+15ene5941100 0.0 1019387
19 september, sun
sun1900:00+13ene5104611 0.0 1019385
03:00+12e510515 0.0 1019374
06:00+11e495412 0.0 1019315
09:00+16se574694 0.0 1019556
12:00+22se673427 0.0 10181662
15:00+23se782790 0.0 10161911
18:00+21se693296 0.0 10161058
21:00+19ese7143673 0.0 1016701
20 september, mon
mon2000:00+18se71241100 0.0 1015811
03:00+17se61247100 0.0 1015735
06:00+16se51150100 0.3 1014552
09:00+16se51052100 0.8 1014521
12:00+16se586392 0.3 1014441
15:00+21se573613 0.3 10131263
18:00+20ese594195 0.0 1011416
21:00+18sse26505 0.0 1012161
21 september, tue
tue2100:00+17ssw22655 0.0 101333
03:00+17wnw236638 0.0 101355
06:00+16se2268100 0.1 101351
09:00+21ssw355078 0.1 1013444
12:00+24ssw4740100 0.0 10131425
15:00+18sw5879100 1.1 1013510
18:00+17s4792100 4.8 1013361
21:00+16ssw51094100 9.6 1012623
22 september, wed
wed2200:00+15wsw3686100 9.6 1012447
03:00+14w37801 9.6 1012284
06:00+13w367318 0.0 1013191
09:00+16wsw465434 0.0 1014533
12:00+19sw473623 0.0 10132152
15:00+19wsw6744100 0.0 10131673
18:00+15w46532 0.0 1014742
21:00+13nw475696 0.0 1016444